Terminal Aerodrome Forecast
Issued by NWS Buffalo, NY

Home | Current Version | Previous Version | Text Only | Print | Product List | Glossary On
Versions: 1 2 3 4 5 6 7 8 9 10 11 12 13 14 15 16 17 18 19 20 21 22 23 24 25 26 27 28 29 30 31 32 33
354
FTUS41 KBUF 130527
TAFROC
TAF
KROC 130527Z 1306/1406 32012G20KT P6SM VCSH SCT025 BKN035
     FM130900 32015G25KT 5SM -SN BKN015
      TEMPO 1309/1311 2SM -SN
     FM131100 32015G25KT 2SM -SN BKN015
     FM131500 30018G28KT 4SM -SHSN BLSN BKN015
     FM132200 30015G25KT 6SM -SN BLSN OVC025=

USA.gov is the U.S. government's official web portal to all federal, state and local government web resources and services.